Weather History for Swainsboro, GA

Change the Weather History Date:

Monday, December 17, 2012

  Actual Average Record
Temperature  
Mean Temperature 60 °F -  
Max Temperature 64 °F 60 °F 64 °F (2012)
Min Temperature 55 °F 36 °F 32 °F (2013)
Degree Days  
Heating Degree Days 6    
Growing Degree Days 10 (Base 50)    
Moisture  
Dew Point 58 °F    
Average Humidity 100    
Maximum Humidity 100    
Minimum Humidity 100    
Precipitation  
Precipitation 0.00 in - - ()
Sea Level Pressure  
Sea Level Pressure 29.85 in    
Wind  
Wind Speed 4 mph (WSW)    
Max Wind Speed 10 mph    
Max Gust Speed 18 mph    
Visibility 9 miles    
Events Rain , Thunderstorm    
Averages and records for this station are not official NWS values.
T = Trace of Precipitation, MM = Missing Value Source: NWS Daily Summary

Daily Weather History Graph

Daily Weather History Graph

Search for Another Location

Airport:

Trip Planner

Search our weather history database for the weather conditions in past years. The results will help you decide how hot, cold, wet, or windy it might be!

Date:

Astronomy

Dec. 17, 2012 Rise Set
Actual Time 7:25 AM EST 5:26 PM EST
Civil Twilight 6:58 AM EST 5:53 PM EST
Nautical Twilight 6:27 AM EST 6:24 PM EST
Astronomical Twilight 5:57 AM EST 6:54 PM EST
Moon 10:46 AM EST (12/17) 10:31 PM EST (12/17)
Length of Visible Light 10h 55m
Length of Day
10h 00m
Waxing Crescent, 24% of the Moon is Illuminated
Dec 17
Waxing Crescent
Dec 20
First Quarter
Dec 28
Full
Jan 4
Last Quarter
Jan 11
New

Hourly Weather History & Observations

Time (EST) Temp. Dew Point Humidity Pressure Visibility Wind Dir Wind Speed Gust Speed Precip Events Conditions
12:15 AM 64.4 °F 64.4 °F 100% 29.91 in 5.0 mi West 4.6 mph - N/A Rain Rain
12:35 AM 62.6 °F 62.6 °F 100% 29.90 in 5.0 mi SW 4.6 mph - N/A   Drizzle
12:55 AM 62.6 °F 62.6 °F 100% 29.91 in 4.0 mi WNW 6.9 mph - N/A Rain Rain
1:15 AM 60.8 °F 60.8 °F 100% 29.92 in 7.0 mi NNW 10.4 mph 16.1 mph N/A   Light Drizzle
1:35 AM 57.2 °F 57.2 °F 100% 29.94 in 10.0 mi NNW 9.2 mph 18.4 mph N/A Rain Heavy Rain
1:55 AM 57.2 °F 57.2 °F 100% 29.94 in 10.0 mi NNW 10.4 mph 16.1 mph N/A   Overcast
2:15 AM 55.4 °F 55.4 °F 100% 29.94 in 10.0 mi NNW 6.9 mph - N/A   Overcast
2:35 AM 55.4 °F 55.4 °F 100% 29.94 in 10.0 mi NNE 4.6 mph - N/A   Overcast
2:55 AM 55.4 °F 55.4 °F 100% 29.93 in 10.0 mi Calm Calm - N/A   Overcast
3:15 AM 55.4 °F 55.4 °F 100% 29.92 in 10.0 mi Calm Calm - N/A   Mostly Cloudy
3:35 AM 55.4 °F 55.4 °F 100% 29.91 in 10.0 mi Calm Calm - N/A   Mostly Cloudy
3:55 AM 55.4 °F 55.4 °F 100% 29.90 in 10.0 mi Calm Calm - N/A   Scattered Clouds
4:15 AM 55.4 °F 55.4 °F 100% 29.90 in 10.0 mi Calm Calm - N/A   Mostly Cloudy
4:35 AM 55.4 °F 55.4 °F 100% 29.88 in 10.0 mi SSE 4.6 mph - N/A   Overcast
4:55 AM 55.4 °F 55.4 °F 100% 29.87 in 10.0 mi SSE 4.6 mph - N/A   Mostly Cloudy
5:15 AM 55.4 °F 55.4 °F 100% 29.85 in 10.0 mi SE 5.8 mph - N/A   Mostly Cloudy
5:35 AM 55.4 °F 55.4 °F 100% 29.83 in 10.0 mi SE 6.9 mph - N/A   Mostly Cloudy
5:55 AM 55.4 °F 55.4 °F 100% 29.84 in 10.0 mi SSE 5.8 mph - N/A   Overcast
6:15 AM 55.4 °F 55.4 °F 100% 29.85 in 10.0 mi SSW 3.5 mph - N/A   Mostly Cloudy
6:35 AM 55.4 °F 55.4 °F 100% 29.86 in 10.0 mi Calm Calm - N/A Rain Light Rain
6:55 AM 55.4 °F 55.4 °F 100% 29.87 in 10.0 mi Calm Calm - N/A   Light Drizzle
7:15 AM 55.4 °F 55.4 °F 100% 29.89 in 10.0 mi Calm Calm - N/A   Overcast
7:35 AM 55.4 °F 55.4 °F 100% 29.90 in 10.0 mi Calm Calm - N/A Rain Light Rain
7:55 AM 55.4 °F 55.4 °F 100% 29.90 in 10.0 mi NW 3.5 mph - N/A   Light Drizzle
8:15 AM 55.4 °F 55.4 °F 100% 29.90 in 10.0 mi Calm Calm - N/A   Mostly Cloudy
8:35 AM 55.4 °F 55.4 °F 100% 29.90 in 10.0 mi Calm Calm - N/A   Scattered Clouds
8:55 AM 55.4 °F 55.4 °F 100% 29.91 in 10.0 mi Calm Calm - N/A   Mostly Cloudy
9:15 AM 55.4 °F 55.4 °F 100% 29.90 in 10.0 mi Calm Calm - N/A   Overcast
9:35 AM 57.2 °F 57.2 °F 100% 29.90 in 10.0 mi Calm Calm - N/A   Overcast
9:55 AM 57.2 °F 57.2 °F 100% 29.90 in 10.0 mi Calm Calm - N/A   Overcast
10:15 AM 59.0 °F 59.0 °F 100% 29.89 in 10.0 mi Calm Calm - N/A   Overcast
10:35 AM 59.0 °F 59.0 °F 100% 29.88 in 10.0 mi Calm Calm - N/A   Overcast
10:55 AM 59.0 °F 59.0 °F 100% 29.88 in 10.0 mi Calm Calm - N/A Rain Light Rain
11:15 AM 59.0 °F 59.0 °F 100% 29.90 in 2.5 mi NW 8.1 mph - N/A Rain Heavy Rain
11:35 AM 57.2 °F 57.2 °F 100% 29.89 in 7.0 mi NNW 3.5 mph - N/A Rain Rain
11:55 AM 59.0 °F 59.0 °F 100% 29.87 in 10.0 mi Calm Calm - N/A Rain Light Rain
12:15 PM 59.0 °F 59.0 °F 100% 29.86 in 10.0 mi Calm Calm - N/A   Overcast
12:35 PM 59.0 °F 59.0 °F 100% 29.84 in 10.0 mi Calm Calm - N/A   Light Drizzle
12:55 PM 59.0 °F 59.0 °F 100% 29.82 in 10.0 mi Calm Calm - N/A Thunderstorm Overcast
1:15 PM 59.0 °F 59.0 °F 100% 29.81 in 10.0 mi Calm Calm - N/A   Overcast
1:35 PM 59.0 °F 59.0 °F 100% 29.82 in 2.5 mi WNW 10.4 mph - N/A Rain Heavy Rain
1:55 PM 59.0 °F 59.0 °F 100% 29.83 in 1.2 mi WNW 6.9 mph - N/A Rain , Thunderstorm Heavy Thunderstorms and Rain
2:15 PM 59.0 °F 59.0 °F 100% 29.83 in 2.5 mi NW 9.2 mph - N/A Rain , Thunderstorm Thunderstorms and Rain
2:35 PM 59.0 °F 59.0 °F 100% 29.81 in 5.0 mi NNW 3.5 mph - N/A Rain , Thunderstorm Heavy Thunderstorms and Rain
2:55 PM 59.0 °F 59.0 °F 100% 29.81 in 10.0 mi Calm Calm - N/A Rain Rain
3:15 PM 59.0 °F 59.0 °F 100% 29.80 in 10.0 mi SE 3.5 mph - N/A Rain Rain
3:35 PM 59.0 °F 59.0 °F 100% 29.79 in 10.0 mi SE 4.6 mph - N/A Rain Light Rain
3:55 PM 59.0 °F 59.0 °F 100% 29.78 in 10.0 mi SE 5.8 mph - N/A Rain Light Rain
4:15 PM 59.0 °F 59.0 °F 100% 29.78 in 10.0 mi SE 8.1 mph - N/A Rain Light Rain
4:35 PM 59.0 °F 59.0 °F 100% 29.79 in 10.0 mi South 6.9 mph - N/A Rain Light Rain
4:55 PM 59.0 °F 59.0 °F 100% 29.78 in 10.0 mi SSE 9.2 mph - N/A Rain Light Rain
7:35 PM 59.0 °F 59.0 °F 100% 29.79 in 10.0 mi Calm Calm - N/A   Overcast
7:55 PM 59.0 °F 59.0 °F 100% 29.79 in 10.0 mi SSW 3.5 mph - N/A   Overcast
8:15 PM 59.0 °F 59.0 °F 100% 29.79 in 10.0 mi South 5.8 mph - N/A   Overcast
8:35 PM 59.0 °F 59.0 °F 100% 29.80 in 10.0 mi SW 4.6 mph - N/A   Overcast
8:55 PM 59.0 °F 59.0 °F 100% 29.79 in 7.0 mi Calm Calm - N/A   Overcast
9:15 PM 59.0 °F 59.0 °F 100% 29.79 in 4.0 mi SW 4.6 mph - N/A   Overcast
9:35 PM 59.0 °F 59.0 °F 100% 29.80 in 4.0 mi WSW 5.8 mph - N/A   Overcast
9:55 PM 59.0 °F 59.0 °F 100% 29.80 in 3.0 mi WSW 4.6 mph - N/A   Overcast
10:15 PM 59.0 °F 59.0 °F 100% 29.80 in 5.0 mi WSW 4.6 mph - N/A   Overcast
10:35 PM 59.0 °F 59.0 °F 100% 29.80 in 10.0 mi WSW 4.6 mph - N/A   Overcast
10:55 PM 59.0 °F 59.0 °F 100% 29.80 in 10.0 mi West 6.9 mph - N/A   Overcast
11:15 PM 59.0 °F 59.0 °F 100% 29.80 in 10.0 mi West 6.9 mph - N/A   Overcast
11:35 PM 59.0 °F 59.0 °F 100% 29.78 in 10.0 mi WSW 6.9 mph - N/A   Overcast
11:55 PM 59.0 °F 59.0 °F 100% 29.78 in 10.0 mi WSW 3.5 mph - N/A   Scattered Clouds